307  
ASUS42 KKEY 152310  
RWRKEY  
 
FLORIDA REGIONAL WEATHER ROUNDUP FOR THE FLORIDA KEYS  
NATIONAL WEATHER SERVICE KEY WEST FLORIDA  
700 PM EDT SUN JUL 15 2018  
   
..SOUTH FLORIDA AND THE KEYS
 
 
 
CITY SKY/WX TMP DP RH WIND PRES REMARKS
 
FORT MYERS LGT RAIN 84 76 76 CALM 30.00S HX 93  
SW REGIONAL AP FAIR 82 75 79 CALM 30.00F  
NAPLES FAIR 90 77 65 W7 30.00F HX 103  
MIAMI PTSUNNY 87 71 58 SE10 30.02S HX 93  
WEST KENDALL FAIR 88 71 57 SE8 30.01S HX 94  
HOMESTEAD FAIR 87 71 57 SE8 30.01S HX 92  
MARATHON FAIR 87 74 64 S7 30.02S HX 95  
KEY WEST INTL FAIR 89 74 60 CALM 30.03S HX 98  
   
..INTERNATIONAL WEATHER
 
 
 
CITY SKY/WX TMP DP RH WIND PRES REMARKS
 
NASSAU BAHAMAS MOSUNNY 86 73 66 S7 30.05S HX 93  
CANCUN MEXICO MOSUNNY 86 77 74 E9 30.01S HX 97  
COZUMEL MEXICO PTSUNNY 86 75 70 E6 29.99S HX 95  
 
ADJACENT COASTAL WATERS...  
 
STATION/POSITION TIME SKY/WX TEMP WIND PRES WAVE
 
AIR SEA DIR/SP/G HT/PER  
(UTC) (F) (DEG/KT/KT) (MB) (FT/S)  
PULASKI SHOAL LI 2300 87 120/ 3/ 4 1016.9F  
SAND KEY 2250 85 1017.0R  
SOMBRERO KEY 2250 85 170/ 6/ 9 1016.1R  
LONG KEY 2200 87 92 200/ 3/ 4 1016.3F  
MOLASSES REEF 2200 85 87 170/ 6/ 7 1017.1F  
FOWEY ROCKS 2300 85 88 150/ 11/ 12 1017.3R  
BUOY 42097 2230 90 N/A 1  
 

 
 
 
CLICK HERE TO GO TO PREVIOUS BULLETINS.

The Nexlab FL Page Main Text Page